{"data":{"norad_id":68118,"intl_designator":"2026-044T","name":"STARLINK-36789","alt_names":[],"object_type":"PAYLOAD","status":"ACTIVE","operator":null,"country":"US","launch_date":"2026-03-08","launch_site_code":"AFWTR","launch_vehicle":null,"mission":null,"orbit_class":"UNKNOWN","rcs_meters":null,"size_class":null,"mass_kg":null,"dimensions":null,"purposes":["comms"],"wikipedia_slug":null,"has_3d_model":false,"image_url":null,"decayed_at":null,"tle_current":{"epoch":"2026-09-19T14:42:15.366240Z","epoch_age_seconds":132859,"freshness":"FRESH","line1":"1 68118U 26044T   26262.61267785  .00014045  00000+0  43655-3 0  9999","line2":"2 68118  97.2850 221.6055 0001097 104.2438 255.8927 15.33445648 31305","mean_motion":15.33445648,"eccentricity":0.0001097,"inclination_deg":97.285,"raan_deg":221.6055,"arg_perigee_deg":104.2438,"mean_anomaly_deg":255.8927,"bstar":0.00043655,"rev_number":3130,"period_min":93.906164974163,"perigee_km":464.79049498308,"apogee_km":466.29199799036,"semimajor_km":6843.6782464867,"source":"CELESTRAK","updated_at":"2026-09-20T09:00:43.788742Z"}}}